Location: Durham
(54.7770°N, 1.5720°W)
Time: 21:05:23
(UTC+00:00)

ISS - Visible Passes

Search period start: 31 January 2015 00:00
Search period end: 10 February 2015 00:00
Orbit: 400 x 408 km, 51.6° (Epoch: 31 January)

Date Brightness Start Highest point End Pass type
(mag) Time Alt. Az. Time Alt. Az. Time Alt. Az.
06 Feb -0.7 18:48:37 10° SSE 18:48:41 10° SSE 18:48:41 10° SSE visible
07 Feb -0.9 19:30:22 10° SSW 19:31:17 16° SSW 19:31:17 16° SSW visible
08 Feb -1.5 18:38:29 10° SSW 18:40:48 18° SSE 18:41:07 18° SE visible
08 Feb -0.1 20:13:38 10° WSW 20:13:46 11° WSW 20:13:46 11° WSW visible
09 Feb -1.0 17:46:59 10° S 17:48:30 13° SE 17:50:06 10° ESE visible
09 Feb -1.9 19:21:19 10° SW 19:23:31 30° SSW 19:23:31 30° SSW visible
